Location: Bern�tre
(50.1974°N, 2.0915°E)
Time: 05:48:24
(UTC+00:00)

Meteor 1-15 Rocket - Pass Details

Date: 18 September 2020
Orbit: 840 x 907 km, 81.2° (Epoch: 22 October)

Event Time Altitude Azimuth Distance (km) Brightness Sun altitude
Rises 19:51:21 0° 181° (S) 3,395 7.1 -18.3°
Reaches altitude 10° 19:53:45 10° 179° (S) 2,471 6.4 -18.7°
Maximum altitude 19:59:18 68° 98° (E) 926 4.1 -19.5°
Drops below altitude 10° 20:04:59 10° 17° (NNE) 2,529 6.8 -20.3°
Sets 20:07:28 0° 15° (NNE) 3,481 7.6 -20.6°
